Home > Weather > Nouadhibou > Past weeks

Flag for Mauritania Past Weather in Nouadhibou, Mauritania — Yesterday and Last 2 Weeks

Now
73 °F

Scattered clouds.


Feels Like: 75 °F
Forecast: 69 / 77 °F
Wind: 12 mph from Northwest

Location: Nouadhibou Airport

Current Time: Jul 24, 2016 at 12:59:32 PM

Latest Report: Jul 24, 2016 at 12:00 PM


Visibility: 4 mi

Pressure: 29.86 "Hg

Humidity: 74%

Dew Point: 64 °F

Location of NouadhibouLocation

Past Weather in Nouadhibou — Graph

°F

Nouadhibou Temperature Yesterday

Maximum temperature yesterday: 77 °F (at 2:00 PM)
Minimum temperature yesterday: 68 °F (at 3:00 AM)
Average temperature yesterday: 72 °F

High & Low Weather Summary for the Past Weeks

 TemperatureHumidityPressure
High86 °F (Jul 13, 2:00 PM)100% (Jul 21, 3:00 AM)30.01 "Hg (Jul 21, 3:00 AM)
Low66 °F (Jul 10, 12:00 AM)48% (Jul 17, 11:00 AM)29.74 "Hg (Jul 17, 5:00 PM)
Average72 °F80%29.86 "Hg
* Reported Jul 9 11:00 AM — Jul 24 11:00 AM, Nouadhibou, Weather by CustomWeather, © 2016

Note: Actual official high and low records may vary slightly from our data, if they occured in-between our weather recording intervals... More about our weather records

Advertising

Nouadhibou Weather History for the Previous 24 Hours

Scroll right to see more
 ConditionsComfort  
Time TempWeatherWind HumidityBarometerVisibility
11:00 AM
Sun, Jul 24
73 °FPartly sunny.10 mph74%29.89 "Hg4 mi
10:00 AM73 °FPartly sunny.7 mph78%29.86 "Hg4 mi
9:00 AM70 °FPartly sunny.9 mph88%29.86 "Hg4 mi
8:00 AM68 °FScattered clouds.8 mph88%29.86 "Hg4 mi
7:00 AM68 °FScattered clouds.12 mph88%29.83 "Hg4 mi
6:00 AM68 °FPassing clouds.8 mph88%29.83 "Hg4 mi
5:00 AM70 °FPassing clouds.9 mph83%29.80 "Hg4 mi
4:00 AM70 °FClear.5 mph88%29.83 "Hg4 mi
3:00 AM70 °FClear.3 mph88%29.83 "Hg4 mi
2:00 AM70 °FClear.6 mph88%29.83 "Hg4 mi
1:00 AM70 °FClear.6 mph88%29.86 "Hg4 mi
12:00 AM70 °FClear.6 mph88%29.86 "Hg4 mi
11:00 PM
Sat, Jul 23
72 °FClear.6 mph83%29.86 "Hg4 mi
10:00 PM72 °FClear.10 mph83%29.83 "Hg4 mi
9:00 PM75 °FClear.7 mph74%29.80 "Hg4 mi
8:00 PM75 °FClear.2 mph69%29.77 "Hg4 mi
7:00 PM75 °FClear.6 mph69%29.77 "Hg4 mi
6:00 PM73 °FClear.7 mph74%29.77 "Hg4 mi
5:00 PM75 °FClear.8 mph69%29.77 "Hg4 mi
4:00 PM75 °FClear.8 mph69%29.80 "Hg4 mi
3:00 PM77 °FClear.13 mph69%29.77 "Hg4 mi
2:00 PM77 °FPassing clouds.6 mph69%29.80 "Hg4 mi
1:00 PM75 °FPassing clouds.9 mph74%29.83 "Hg4 mi
12:00 PM75 °FPassing clouds.7 mph78%29.83 "Hg4 mi
Weather by CustomWeather, © 2016

See weather overviewHow to use our weather pages